Year,Month,Day,Hour,Minute,Value (Times are PST for windgust in km/hr)
2012,07,04,00,05,1.60
2012,07,04,00,08,3.20
2012,07,04,00,09,4.80
2012,07,04,00,10,1.60
2012,07,04,00,12,6.40
2012,07,04,00,13,11.30
2012,07,04,00,14,8.10
2012,07,04,00,15,4.80
2012,07,04,00,16,4.80
2012,07,04,00,17,4.80
2012,07,04,00,18,3.20
2012,07,04,00,19,4.80
2012,07,04,00,20,3.20
2012,07,04,00,21,1.60
2012,07,04,00,22,6.40
2012,07,04,00,23,8.10
2012,07,04,00,24,9.60
2012,07,04,00,25,11.30
2012,07,04,00,26,14.50
2012,07,04,00,27,8.10
2012,07,04,00,28,8.10
2012,07,04,00,29,4.80
2012,07,04,00,30,9.60
2012,07,04,00,31,8.10
2012,07,04,00,32,6.40
2012,07,04,00,33,6.40
2012,07,04,00,34,6.40
2012,07,04,00,35,6.40
2012,07,04,00,36,1.60
2012,07,04,00,38,3.20
2012,07,04,00,39,3.20
2012,07,04,00,40,4.80
2012,07,04,00,41,3.20
2012,07,04,00,42,4.80
2012,07,04,00,43,4.80
2012,07,04,00,44,1.60
2012,07,04,00,45,6.40
2012,07,04,00,46,4.80
2012,07,04,00,48,6.40
2012,07,04,00,49,6.40
2012,07,04,00,50,8.10
2012,07,04,00,51,8.10
2012,07,04,00,52,4.80
2012,07,04,00,53,6.40
2012,07,04,00,54,4.80
2012,07,04,00,55,4.80
2012,07,04,00,56,6.40
2012,07,04,00,57,4.80
2012,07,04,00,58,4.80
2012,07,04,00,59,1.60
2012,07,04,01,00,8.10
2012,07,04,01,01,9.60
2012,07,04,01,02,8.10
2012,07,04,01,03,6.40
2012,07,04,01,04,4.80
2012,07,04,01,05,3.20
2012,07,04,01,06,4.80
2012,07,04,01,07,8.10
2012,07,04,01,08,4.80
2012,07,04,01,09,4.80
2012,07,04,01,10,4.80
2012,07,04,01,11,4.80
2012,07,04,01,12,4.80
2012,07,04,01,13,3.20
2012,07,04,01,14,4.80
2012,07,04,01,15,6.40
2012,07,04,01,16,1.60
2012,07,04,01,17,1.60
2012,07,04,01,18,8.10
2012,07,04,01,20,1.60
2012,07,04,01,21,14.50
2012,07,04,01,22,17.70
2012,07,04,01,23,8.10
2012,07,04,01,27,1.60
2012,07,04,01,28,4.80
2012,07,04,01,29,1.60
2012,07,04,01,30,3.20
2012,07,04,01,31,6.40
2012,07,04,01,32,3.20
2012,07,04,01,37,1.60
2012,07,04,01,38,1.60
2012,07,04,01,39,4.80
2012,07,04,01,40,4.80
2012,07,04,01,41,4.80
2012,07,04,01,42,4.80
2012,07,04,01,47,3.20
2012,07,04,01,48,3.20
2012,07,04,01,49,4.80
2012,07,04,01,55,1.60
2012,07,04,01,57,1.60
2012,07,04,01,58,3.20
2012,07,04,01,59,4.80
2012,07,04,02,00,9.60
2012,07,04,02,01,9.60
2012,07,04,02,02,6.40
2012,07,04,02,03,6.40
2012,07,04,02,04,4.80
2012,07,04,02,05,4.80
2012,07,04,02,06,6.40
2012,07,04,02,07,4.80
2012,07,04,02,09,1.60
2012,07,04,02,10,4.80
2012,07,04,02,11,4.80
2012,07,04,02,12,4.80
2012,07,04,02,13,4.80
2012,07,04,02,14,8.10
2012,07,04,02,15,8.10
2012,07,04,02,16,1.60
2012,07,04,02,17,6.40
2012,07,04,02,18,3.20
2012,07,04,02,19,1.60
2012,07,04,02,20,6.40
2012,07,04,02,21,4.80
2012,07,04,02,22,3.20
2012,07,04,02,23,4.80
2012,07,04,02,24,3.20
2012,07,04,02,25,4.80
2012,07,04,02,26,1.60
2012,07,04,02,27,3.20
2012,07,04,02,28,4.80
2012,07,04,02,29,4.80
2012,07,04,02,30,3.20
2012,07,04,02,31,1.60
2012,07,04,02,32,4.80
2012,07,04,02,33,1.60
2012,07,04,02,35,3.20
2012,07,04,02,36,1.60
2012,07,04,02,37,1.60
2012,07,04,02,39,3.20
2012,07,04,02,40,4.80
2012,07,04,02,41,1.60
2012,07,04,02,42,1.60
2012,07,04,02,43,4.80
2012,07,04,02,44,3.20
2012,07,04,02,47,1.60
2012,07,04,02,48,1.60
2012,07,04,02,50,4.80
2012,07,04,02,58,1.60
2012,07,04,03,11,3.20
2012,07,04,03,12,4.80
2012,07,04,03,13,6.40
2012,07,04,03,14,9.60
2012,07,04,03,15,8.10
2012,07,04,03,16,6.40
2012,07,04,03,17,8.10
2012,07,04,03,18,8.10
2012,07,04,03,19,6.40
2012,07,04,03,20,6.40
2012,07,04,03,21,6.40
2012,07,04,03,22,4.80
2012,07,04,03,23,4.80
2012,07,04,03,24,3.20
2012,07,04,03,25,3.20
2012,07,04,03,31,4.80
2012,07,04,03,32,4.80
2012,07,04,03,33,6.40
2012,07,04,03,34,4.80
2012,07,04,03,35,4.80
2012,07,04,03,36,6.40
2012,07,04,03,37,1.60
2012,07,04,03,38,1.60
2012,07,04,03,50,1.60
2012,07,04,03,51,4.80
2012,07,04,03,52,6.40
2012,07,04,03,53,4.80
2012,07,04,03,54,1.60
2012,07,04,03,59,3.20
2012,07,04,04,00,4.80
2012,07,04,04,05,1.60
2012,07,04,04,06,1.60
2012,07,04,04,07,3.20
2012,07,04,04,08,1.60
2012,07,04,04,12,1.60
2012,07,04,04,14,1.60
2012,07,04,04,22,6.40
2012,07,04,04,23,6.40
2012,07,04,04,24,1.60
2012,07,04,04,25,4.80
2012,07,04,04,26,1.60
2012,07,04,04,29,1.60
2012,07,04,04,30,4.80
2012,07,04,04,31,4.80
2012,07,04,04,32,3.20
2012,07,04,04,33,1.60
2012,07,04,04,44,1.60
2012,07,04,05,08,4.80
2012,07,04,05,09,4.80
2012,07,04,05,10,4.80
2012,07,04,05,13,1.60
2012,07,04,05,14,1.60
2012,07,04,05,15,4.80
2012,07,04,05,16,4.80
2012,07,04,05,17,3.20
2012,07,04,05,46,1.60
2012,07,04,05,47,1.60
2012,07,04,05,48,4.80
2012,07,04,05,49,4.80
2012,07,04,05,50,3.20
2012,07,04,05,51,4.80
2012,07,04,05,52,4.80
2012,07,04,05,53,4.80
2012,07,04,05,54,3.20
2012,07,04,05,56,3.20
2012,07,04,06,13,1.60
2012,07,04,06,14,3.20
2012,07,04,06,54,1.60
2012,07,04,06,55,3.20
2012,07,04,06,56,3.20
2012,07,04,06,58,1.60
2012,07,04,07,59,1.60
2012,07,04,08,00,3.20
2012,07,04,08,01,1.60
2012,07,04,08,02,4.80
2012,07,04,08,03,4.80
2012,07,04,08,06,1.60
2012,07,04,08,07,1.60
2012,07,04,08,08,4.80
2012,07,04,08,09,3.20
2012,07,04,08,10,1.60
2012,07,04,08,11,3.20
2012,07,04,08,12,1.60
2012,07,04,08,13,6.40
2012,07,04,08,14,1.60
2012,07,04,08,18,6.40
2012,07,04,08,19,4.80
2012,07,04,08,20,6.40
2012,07,04,08,21,4.80
2012,07,04,08,22,4.80
2012,07,04,08,23,6.40
2012,07,04,08,24,9.60
2012,07,04,08,25,8.10
2012,07,04,08,26,4.80
2012,07,04,08,27,4.80
2012,07,04,08,28,6.40
2012,07,04,08,29,8.10
2012,07,04,08,32,1.60
2012,07,04,08,33,3.20
2012,07,04,08,34,4.80
2012,07,04,08,36,3.20
2012,07,04,08,37,3.20
2012,07,04,08,38,6.40
2012,07,04,08,39,6.40
2012,07,04,08,40,6.40
2012,07,04,08,41,6.40
2012,07,04,08,42,4.80
2012,07,04,08,43,3.20
2012,07,04,08,44,8.10
2012,07,04,08,45,8.10
2012,07,04,08,46,4.80
2012,07,04,08,47,4.80
2012,07,04,08,48,3.20
2012,07,04,08,49,6.40
2012,07,04,08,50,4.80
2012,07,04,08,51,6.40
2012,07,04,08,52,1.60
2012,07,04,08,53,4.80
2012,07,04,08,54,4.80
2012,07,04,08,55,1.60
2012,07,04,08,56,1.60
2012,07,04,09,00,6.40
2012,07,04,09,01,4.80
2012,07,04,09,02,1.60
2012,07,04,09,03,1.60
2012,07,04,09,04,6.40
2012,07,04,09,05,6.40
2012,07,04,09,06,6.40
2012,07,04,09,07,6.40
2012,07,04,09,08,8.10
2012,07,04,09,09,8.10
2012,07,04,09,10,3.20
2012,07,04,09,11,6.40
2012,07,04,09,12,4.80
2012,07,04,09,13,3.20
2012,07,04,09,14,6.40
2012,07,04,09,15,4.80
2012,07,04,09,16,4.80
2012,07,04,09,17,3.20
2012,07,04,09,18,6.40
2012,07,04,09,19,3.20
2012,07,04,09,20,4.80
2012,07,04,09,21,6.40
2012,07,04,09,22,6.40
2012,07,04,09,23,6.40
2012,07,04,09,24,6.40
2012,07,04,09,25,3.20
2012,07,04,09,28,3.20
2012,07,04,09,29,6.40
2012,07,04,09,30,6.40
2012,07,04,09,31,9.60
2012,07,04,09,32,8.10
2012,07,04,09,33,6.40
2012,07,04,09,34,8.10
2012,07,04,09,35,8.10
2012,07,04,09,36,4.80
2012,07,04,09,37,4.80
2012,07,04,09,38,4.80
2012,07,04,09,39,6.40
2012,07,04,09,40,3.20
2012,07,04,09,41,8.10
2012,07,04,09,42,8.10
2012,07,04,09,43,8.10
2012,07,04,09,44,8.10
2012,07,04,09,45,6.40
2012,07,04,09,46,8.10
2012,07,04,09,47,6.40
2012,07,04,09,48,4.80
2012,07,04,09,49,6.40
2012,07,04,09,50,8.10
2012,07,04,09,51,8.10
2012,07,04,09,52,4.80
2012,07,04,09,53,1.60
2012,07,04,09,54,1.60
2012,07,04,09,55,4.80
2012,07,04,09,56,9.60
2012,07,04,09,57,11.30
2012,07,04,09,58,9.60
2012,07,04,09,59,6.40
2012,07,04,10,00,11.30
2012,07,04,10,01,16.10
2012,07,04,10,02,8.10
2012,07,04,10,03,4.80
2012,07,04,10,04,6.40
2012,07,04,10,05,12.90
2012,07,04,10,06,11.30
2012,07,04,10,07,9.60
2012,07,04,10,08,11.30
2012,07,04,10,09,9.60
2012,07,04,10,10,8.10
2012,07,04,10,11,8.10
2012,07,04,10,12,6.40
2012,07,04,10,13,9.60
2012,07,04,10,14,6.40
2012,07,04,10,15,6.40
2012,07,04,10,16,8.10
2012,07,04,10,17,1.60
2012,07,04,10,18,9.60
2012,07,04,10,19,9.60
2012,07,04,10,20,16.10
2012,07,04,10,21,9.60
2012,07,04,10,22,8.10
2012,07,04,10,23,11.30
2012,07,04,10,24,11.30
2012,07,04,10,25,8.10
2012,07,04,10,26,8.10
2012,07,04,10,27,11.30
2012,07,04,10,28,9.60
2012,07,04,10,29,9.60
2012,07,04,10,30,4.80
2012,07,04,10,31,9.60
2012,07,04,10,32,9.60
2012,07,04,10,33,11.30
2012,07,04,10,34,6.40
2012,07,04,10,35,11.30
2012,07,04,10,36,11.30
2012,07,04,10,37,9.60
2012,07,04,10,38,8.10
2012,07,04,10,39,8.10
2012,07,04,10,40,9.60
2012,07,04,10,41,6.40
2012,07,04,10,42,8.10
2012,07,04,10,43,9.60
2012,07,04,10,44,14.50
2012,07,04,10,45,11.30
2012,07,04,10,46,9.60
2012,07,04,10,47,8.10
2012,07,04,10,48,8.10
2012,07,04,10,49,11.30
2012,07,04,10,50,11.30
2012,07,04,10,51,11.30
2012,07,04,10,52,11.30
2012,07,04,10,53,11.30
2012,07,04,10,54,9.60
2012,07,04,10,55,14.50
2012,07,04,10,56,12.90
2012,07,04,10,57,11.30
2012,07,04,10,58,8.10
2012,07,04,10,59,9.60
2012,07,04,11,00,6.40
2012,07,04,11,01,11.30
2012,07,04,11,02,8.10
2012,07,04,11,03,9.60
2012,07,04,11,04,6.40
2012,07,04,11,05,8.10
2012,07,04,11,06,9.60
2012,07,04,11,07,8.10
2012,07,04,11,08,6.40
2012,07,04,11,09,8.10
2012,07,04,11,10,8.10
2012,07,04,11,11,11.30
2012,07,04,11,12,8.10
2012,07,04,11,13,6.40
2012,07,04,11,14,4.80
2012,07,04,11,15,6.40
2012,07,04,11,16,6.40
2012,07,04,11,17,9.60
2012,07,04,11,18,6.40
2012,07,04,11,19,9.60
2012,07,04,11,20,8.10
2012,07,04,11,21,11.30
2012,07,04,11,22,14.50
2012,07,04,11,23,14.50
2012,07,04,11,24,9.60
2012,07,04,11,25,6.40
2012,07,04,11,26,12.90
2012,07,04,11,27,11.30
2012,07,04,11,28,11.30
2012,07,04,11,29,11.30
2012,07,04,11,30,11.30
2012,07,04,11,31,9.60
2012,07,04,11,32,9.60
2012,07,04,11,33,11.30
2012,07,04,11,34,14.50
2012,07,04,11,35,9.60
2012,07,04,11,36,8.10
2012,07,04,11,37,11.30
2012,07,04,11,38,14.50
2012,07,04,11,39,11.30
2012,07,04,11,40,14.50
2012,07,04,11,41,9.60
2012,07,04,11,42,11.30
2012,07,04,11,43,14.50
2012,07,04,11,44,11.30
2012,07,04,11,45,11.30
2012,07,04,11,46,11.30
2012,07,04,11,47,9.60
2012,07,04,11,48,17.70
2012,07,04,11,49,11.30
2012,07,04,11,50,11.30
2012,07,04,11,51,11.30
2012,07,04,11,52,14.50
2012,07,04,11,53,8.10
2012,07,04,11,54,9.60
2012,07,04,11,55,14.50
2012,07,04,11,56,14.50
2012,07,04,11,57,6.40
2012,07,04,11,58,14.50
2012,07,04,11,59,9.60
2012,07,04,12,00,9.60
2012,07,04,12,01,8.10
2012,07,04,12,02,8.10
2012,07,04,12,03,11.30
2012,07,04,12,04,11.30
2012,07,04,12,05,8.10
2012,07,04,12,06,11.30
2012,07,04,12,07,9.60
2012,07,04,12,08,9.60
2012,07,04,12,09,14.50
2012,07,04,12,10,16.10
2012,07,04,12,11,17.70
2012,07,04,12,12,11.30
2012,07,04,12,13,9.60
2012,07,04,12,14,12.90
2012,07,04,12,15,14.50
2012,07,04,12,16,11.30
2012,07,04,12,17,16.10
2012,07,04,12,18,12.90
2012,07,04,12,19,14.50
2012,07,04,12,20,19.30
2012,07,04,12,21,16.10
2012,07,04,12,22,16.10
2012,07,04,12,23,17.70
2012,07,04,12,24,16.10
2012,07,04,12,25,16.10
2012,07,04,12,26,16.10
2012,07,04,12,27,17.70
2012,07,04,12,28,11.30
2012,07,04,12,29,16.10
2012,07,04,12,30,12.90
2012,07,04,12,31,16.10
2012,07,04,12,32,14.50
2012,07,04,12,33,9.60
2012,07,04,12,34,9.60
2012,07,04,12,35,12.90
2012,07,04,12,36,14.50
2012,07,04,12,37,11.30
2012,07,04,12,38,11.30
2012,07,04,12,39,11.30
2012,07,04,12,40,16.10
2012,07,04,12,41,16.10
2012,07,04,12,42,11.30
2012,07,04,12,43,14.50
2012,07,04,12,44,8.10
2012,07,04,12,45,14.50
2012,07,04,12,46,9.60
2012,07,04,12,47,16.10
2012,07,04,12,48,8.10
2012,07,04,12,49,11.30
2012,07,04,12,50,11.30
2012,07,04,12,51,11.30
2012,07,04,12,52,6.40
2012,07,04,12,53,9.60
2012,07,04,12,54,14.50
2012,07,04,12,55,11.30
2012,07,04,12,56,9.60
2012,07,04,12,57,11.30
2012,07,04,12,58,14.50
2012,07,04,12,59,11.30
2012,07,04,13,00,9.60
2012,07,04,13,01,9.60
2012,07,04,13,02,8.10
2012,07,04,13,03,11.30
2012,07,04,13,04,12.90
2012,07,04,13,05,9.60
2012,07,04,13,06,16.10
2012,07,04,13,07,11.30
2012,07,04,13,08,14.50
2012,07,04,13,09,11.30
2012,07,04,13,10,12.90
2012,07,04,13,11,16.10
2012,07,04,13,12,16.10
2012,07,04,13,13,11.30
2012,07,04,13,14,12.90
2012,07,04,13,15,14.50
2012,07,04,13,16,12.90
2012,07,04,13,17,12.90
2012,07,04,13,18,11.30
2012,07,04,13,19,9.60
2012,07,04,13,20,11.30
2012,07,04,13,21,11.30
2012,07,04,13,22,9.60
2012,07,04,13,23,9.60
2012,07,04,13,24,9.60
2012,07,04,13,25,9.60
2012,07,04,13,26,9.60
2012,07,04,13,27,8.10
2012,07,04,13,28,9.60
2012,07,04,13,29,11.30
2012,07,04,13,30,8.10
2012,07,04,13,31,14.50
2012,07,04,13,32,11.30
2012,07,04,13,33,9.60
2012,07,04,13,34,12.90
2012,07,04,13,35,16.10
2012,07,04,13,36,11.30
2012,07,04,13,37,11.30
2012,07,04,13,38,11.30
2012,07,04,13,39,14.50
2012,07,04,13,40,11.30
2012,07,04,13,41,14.50
2012,07,04,13,42,8.10
2012,07,04,13,43,9.60
2012,07,04,13,44,9.60
2012,07,04,13,45,11.30
2012,07,04,13,46,16.10
2012,07,04,13,47,9.60
2012,07,04,13,48,11.30
2012,07,04,13,49,11.30
2012,07,04,13,50,11.30
2012,07,04,13,51,8.10
2012,07,04,13,52,11.30
2012,07,04,13,53,12.90
2012,07,04,13,54,14.50
2012,07,04,13,55,11.30
2012,07,04,13,56,9.60
2012,07,04,13,57,14.50
2012,07,04,13,58,14.50
2012,07,04,13,59,11.30
2012,07,04,14,00,11.30
2012,07,04,14,01,12.90
2012,07,04,14,02,11.30
2012,07,04,14,03,11.30
2012,07,04,14,04,9.60
2012,07,04,14,05,14.50
2012,07,04,14,06,12.90
2012,07,04,14,07,14.50
2012,07,04,14,08,8.10
2012,07,04,14,09,9.60
2012,07,04,14,10,11.30
2012,07,04,14,11,14.50
2012,07,04,14,12,12.90
2012,07,04,14,13,12.90
2012,07,04,14,14,9.60
2012,07,04,14,15,8.10
2012,07,04,14,16,9.60
2012,07,04,14,17,14.50
2012,07,04,14,18,8.10
2012,07,04,14,19,9.60
2012,07,04,14,20,11.30
2012,07,04,14,21,8.10
2012,07,04,14,22,8.10
2012,07,04,14,23,8.10
2012,07,04,14,24,9.60
2012,07,04,14,25,11.30
2012,07,04,14,26,6.40
2012,07,04,14,27,8.10
2012,07,04,14,28,11.30
2012,07,04,14,29,8.10
2012,07,04,14,30,11.30
2012,07,04,14,31,12.90
2012,07,04,14,32,16.10
2012,07,04,14,33,9.60
2012,07,04,14,34,9.60
2012,07,04,14,35,11.30
2012,07,04,14,36,9.60
2012,07,04,14,37,11.30
2012,07,04,14,38,9.60
2012,07,04,14,39,9.60
2012,07,04,14,40,8.10
2012,07,04,14,41,9.60
2012,07,04,14,42,11.30
2012,07,04,14,43,14.50
2012,07,04,14,44,12.90
2012,07,04,14,45,9.60
2012,07,04,14,46,9.60
2012,07,04,14,47,3.20
2012,07,04,14,48,9.60
2012,07,04,14,49,8.10
2012,07,04,14,50,6.40
2012,07,04,14,51,11.30
2012,07,04,14,52,14.50
2012,07,04,14,53,12.90
2012,07,04,14,54,9.60
2012,07,04,14,55,14.50
2012,07,04,14,56,11.30
2012,07,04,14,57,9.60
2012,07,04,14,58,8.10
2012,07,04,14,59,6.40
2012,07,04,15,00,12.90
2012,07,04,15,01,11.30
2012,07,04,15,02,11.30
2012,07,04,15,03,6.40
2012,07,04,15,04,11.30
2012,07,04,15,05,14.50
2012,07,04,15,06,9.60
2012,07,04,15,07,9.60
2012,07,04,15,08,9.60
2012,07,04,15,09,11.30
2012,07,04,15,10,9.60
2012,07,04,15,11,9.60
2012,07,04,15,12,11.30
2012,07,04,15,13,14.50
2012,07,04,15,14,12.90
2012,07,04,15,15,14.50
2012,07,04,15,16,11.30
2012,07,04,15,17,12.90
2012,07,04,15,18,14.50
2012,07,04,15,19,6.40
2012,07,04,15,20,8.10
2012,07,04,15,21,8.10
2012,07,04,15,22,14.50
2012,07,04,15,23,11.30
2012,07,04,15,24,14.50
2012,07,04,15,25,6.40
2012,07,04,15,26,8.10
2012,07,04,15,27,9.60
2012,07,04,15,28,8.10
2012,07,04,15,29,8.10
2012,07,04,15,30,16.10
2012,07,04,15,31,16.10
2012,07,04,15,32,16.10
2012,07,04,15,33,9.60
2012,07,04,15,34,6.40
2012,07,04,15,35,16.10
2012,07,04,15,36,11.30
2012,07,04,15,37,14.50
2012,07,04,15,38,9.60
2012,07,04,15,39,9.60
2012,07,04,15,40,11.30
2012,07,04,15,41,11.30
2012,07,04,15,42,9.60
2012,07,04,15,43,16.10
2012,07,04,15,44,14.50
2012,07,04,15,45,11.30
2012,07,04,15,46,14.50
2012,07,04,15,47,14.50
2012,07,04,15,48,16.10
2012,07,04,15,49,14.50
2012,07,04,15,50,8.10
2012,07,04,15,51,14.50
2012,07,04,15,52,12.90
2012,07,04,15,53,8.10
2012,07,04,15,54,9.60
2012,07,04,15,55,12.90
2012,07,04,15,56,14.50
2012,07,04,15,57,14.50
2012,07,04,15,58,11.30
2012,07,04,15,59,16.10
2012,07,04,16,00,12.90
2012,07,04,16,01,11.30
2012,07,04,16,02,11.30
2012,07,04,16,03,14.50
2012,07,04,16,04,12.90
2012,07,04,16,05,9.60
2012,07,04,16,06,11.30
2012,07,04,16,07,8.10
2012,07,04,16,08,8.10
2012,07,04,16,09,8.10
2012,07,04,16,10,14.50
2012,07,04,16,11,12.90
2012,07,04,16,12,16.10
2012,07,04,16,13,12.90
2012,07,04,16,14,14.50
2012,07,04,16,15,11.30
2012,07,04,16,16,12.90
2012,07,04,16,17,11.30
2012,07,04,16,18,9.60
2012,07,04,16,19,9.60
2012,07,04,16,20,14.50
2012,07,04,16,21,9.60
2012,07,04,16,22,17.70
2012,07,04,16,23,12.90
2012,07,04,16,24,8.10
2012,07,04,16,25,11.30
2012,07,04,16,26,8.10
2012,07,04,16,27,11.30
2012,07,04,16,28,9.60
2012,07,04,16,29,11.30
2012,07,04,16,30,11.30
2012,07,04,16,31,9.60
2012,07,04,16,32,9.60
2012,07,04,16,33,12.90
2012,07,04,16,34,8.10
2012,07,04,16,35,9.60
2012,07,04,16,36,11.30
2012,07,04,16,37,9.60
2012,07,04,16,38,9.60
2012,07,04,16,39,9.60
2012,07,04,16,40,9.60
2012,07,04,16,41,11.30
2012,07,04,16,42,11.30
2012,07,04,16,43,9.60
2012,07,04,16,44,6.40
2012,07,04,16,45,9.60
2012,07,04,16,46,9.60
2012,07,04,16,47,8.10
2012,07,04,16,48,9.60
2012,07,04,16,49,9.60
2012,07,04,16,50,8.10
2012,07,04,16,51,9.60
2012,07,04,16,52,8.10
2012,07,04,16,53,8.10
2012,07,04,16,54,11.30
2012,07,04,16,55,4.80
2012,07,04,16,56,9.60
2012,07,04,16,57,9.60
2012,07,04,16,58,8.10
2012,07,04,16,59,8.10
2012,07,04,17,00,8.10
2012,07,04,17,01,8.10
2012,07,04,17,02,9.60
2012,07,04,17,03,8.10
2012,07,04,17,04,9.60
2012,07,04,17,05,9.60
2012,07,04,17,06,11.30
2012,07,04,17,07,9.60
2012,07,04,17,08,9.60
2012,07,04,17,09,6.40
2012,07,04,17,10,6.40
2012,07,04,17,11,4.80
2012,07,04,17,12,6.40
2012,07,04,17,13,9.60
2012,07,04,17,14,8.10
2012,07,04,17,15,6.40
2012,07,04,17,16,4.80
2012,07,04,17,17,6.40
2012,07,04,17,18,9.60
2012,07,04,17,19,8.10
2012,07,04,17,20,8.10
2012,07,04,17,21,14.50
2012,07,04,17,22,12.90
2012,07,04,17,23,8.10
2012,07,04,17,24,8.10
2012,07,04,17,25,8.10
2012,07,04,17,26,3.20
2012,07,04,17,27,1.60
2012,07,04,17,28,4.80
2012,07,04,17,29,1.60
2012,07,04,17,30,1.60
2012,07,04,17,31,4.80
2012,07,04,17,32,6.40
2012,07,04,17,33,9.60
2012,07,04,17,34,9.60
2012,07,04,17,35,11.30
2012,07,04,17,36,6.40
2012,07,04,17,37,8.10
2012,07,04,17,38,11.30
2012,07,04,17,39,11.30
2012,07,04,17,40,9.60
2012,07,04,17,41,9.60
2012,07,04,17,42,8.10
2012,07,04,17,43,8.10
2012,07,04,17,44,6.40
2012,07,04,17,45,8.10
2012,07,04,17,46,8.10
2012,07,04,17,47,4.80
2012,07,04,17,48,11.30
2012,07,04,17,49,1.60
2012,07,04,17,50,8.10
2012,07,04,17,51,8.10
2012,07,04,17,52,8.10
2012,07,04,17,53,9.60
2012,07,04,17,54,9.60
2012,07,04,17,55,9.60
2012,07,04,17,56,9.60
2012,07,04,17,57,1.60
2012,07,04,17,58,6.40
2012,07,04,17,59,11.30
2012,07,04,18,00,9.60
2012,07,04,18,01,6.40
2012,07,04,18,02,9.60
2012,07,04,18,03,8.10
2012,07,04,18,04,11.30
2012,07,04,18,05,9.60
2012,07,04,18,06,8.10
2012,07,04,18,07,6.40
2012,07,04,18,08,8.10
2012,07,04,18,09,8.10
2012,07,04,18,10,6.40
2012,07,04,18,11,6.40
2012,07,04,18,12,4.80
2012,07,04,18,13,6.40
2012,07,04,18,14,11.30
2012,07,04,18,15,6.40
2012,07,04,18,16,8.10
2012,07,04,18,17,9.60
2012,07,04,18,18,9.60
2012,07,04,18,19,6.40
2012,07,04,18,20,1.60
2012,07,04,18,21,6.40
2012,07,04,18,22,8.10
2012,07,04,18,23,8.10
2012,07,04,18,24,6.40
2012,07,04,18,25,8.10
2012,07,04,18,26,6.40
2012,07,04,18,27,6.40
2012,07,04,18,28,6.40
2012,07,04,18,29,6.40
2012,07,04,18,30,6.40
2012,07,04,18,31,8.10
2012,07,04,18,32,6.40
2012,07,04,18,33,4.80
2012,07,04,18,34,6.40
2012,07,04,18,35,6.40
2012,07,04,18,36,6.40
2012,07,04,18,37,8.10
2012,07,04,18,38,6.40
2012,07,04,18,39,8.10
2012,07,04,18,40,8.10
2012,07,04,18,41,8.10
2012,07,04,18,42,8.10
2012,07,04,18,43,8.10
2012,07,04,18,44,6.40
2012,07,04,18,45,3.20
2012,07,04,18,46,4.80
2012,07,04,18,47,4.80
2012,07,04,18,48,6.40
2012,07,04,18,49,4.80
2012,07,04,18,50,4.80
2012,07,04,18,51,3.20
2012,07,04,18,52,1.60
2012,07,04,18,53,4.80
2012,07,04,18,54,6.40
2012,07,04,18,55,6.40
2012,07,04,18,56,6.40
2012,07,04,18,57,4.80
2012,07,04,18,58,3.20
2012,07,04,18,59,8.10
2012,07,04,19,00,6.40
2012,07,04,19,01,8.10
2012,07,04,19,02,9.60
2012,07,04,19,03,9.60
2012,07,04,19,04,8.10
2012,07,04,19,05,9.60
2012,07,04,19,06,8.10
2012,07,04,19,07,9.60
2012,07,04,19,08,6.40
2012,07,04,19,09,3.20
2012,07,04,19,10,1.60
2012,07,04,19,11,8.10
2012,07,04,19,12,9.60
2012,07,04,19,13,16.10
2012,07,04,19,14,11.30
2012,07,04,19,15,6.40
2012,07,04,19,16,3.20
2012,07,04,19,23,4.80
2012,07,04,19,24,8.10
2012,07,04,19,25,4.80
2012,07,04,19,26,8.10
2012,07,04,19,27,11.30
2012,07,04,19,28,8.10
2012,07,04,19,29,4.80
2012,07,04,19,30,6.40
2012,07,04,19,31,8.10
2012,07,04,19,32,8.10
2012,07,04,19,33,9.60
2012,07,04,19,34,8.10
2012,07,04,19,35,1.60
2012,07,04,19,36,1.60
2012,07,04,19,37,6.40
2012,07,04,19,38,4.80
2012,07,04,19,39,4.80
2012,07,04,19,40,6.40
2012,07,04,19,41,4.80
2012,07,04,19,42,4.80
2012,07,04,19,43,6.40
2012,07,04,19,44,4.80
2012,07,04,19,45,4.80
2012,07,04,19,46,6.40
2012,07,04,19,47,8.10
2012,07,04,19,48,9.60
2012,07,04,19,49,6.40
2012,07,04,19,50,6.40
2012,07,04,19,51,1.60
2012,07,04,19,52,8.10
2012,07,04,19,53,4.80
2012,07,04,19,54,8.10
2012,07,04,19,55,8.10
2012,07,04,19,56,8.10
2012,07,04,19,57,8.10
2012,07,04,19,58,6.40
2012,07,04,19,59,8.10
2012,07,04,20,00,8.10
2012,07,04,20,01,4.80
2012,07,04,20,02,4.80
2012,07,04,20,03,6.40
2012,07,04,20,04,6.40
2012,07,04,20,05,6.40
2012,07,04,20,06,6.40
2012,07,04,20,07,6.40
2012,07,04,20,08,8.10
2012,07,04,20,09,8.10
2012,07,04,20,10,6.40
2012,07,04,20,11,6.40
2012,07,04,20,12,8.10
2012,07,04,20,13,9.60
2012,07,04,20,14,9.60
2012,07,04,20,15,9.60
2012,07,04,20,16,8.10
2012,07,04,20,17,6.40
2012,07,04,20,18,8.10
2012,07,04,20,19,8.10
2012,07,04,20,20,9.60
2012,07,04,20,21,8.10
2012,07,04,20,22,4.80
2012,07,04,20,23,4.80
2012,07,04,20,24,6.40
2012,07,04,20,25,6.40
2012,07,04,20,26,1.60
2012,07,04,20,27,6.40
2012,07,04,20,28,4.80
2012,07,04,20,29,4.80
2012,07,04,20,30,6.40
2012,07,04,20,31,1.60
2012,07,04,20,32,4.80
2012,07,04,20,33,6.40
2012,07,04,20,34,6.40
2012,07,04,20,35,4.80
2012,07,04,20,36,6.40
2012,07,04,20,37,1.60
2012,07,04,20,38,4.80
2012,07,04,20,39,11.30
2012,07,04,20,40,9.60
2012,07,04,20,41,3.20
2012,07,04,20,42,11.30
2012,07,04,20,43,12.90
2012,07,04,20,44,11.30
2012,07,04,20,45,9.60
2012,07,04,20,46,8.10
2012,07,04,20,47,6.40
2012,07,04,20,48,4.80
2012,07,04,20,49,8.10
2012,07,04,20,50,3.20
2012,07,04,20,51,6.40
2012,07,04,20,52,6.40
2012,07,04,20,53,4.80
2012,07,04,20,55,4.80
2012,07,04,20,56,8.10
2012,07,04,20,57,6.40
2012,07,04,20,58,4.80
2012,07,04,20,59,1.60
2012,07,04,21,00,4.80
2012,07,04,21,01,6.40
2012,07,04,21,02,4.80
2012,07,04,21,03,1.60
2012,07,04,21,05,1.60
2012,07,04,21,08,4.80
2012,07,04,21,09,4.80
2012,07,04,21,13,1.60
2012,07,04,21,16,1.60
2012,07,04,21,18,1.60
2012,07,04,21,20,3.20
2012,07,04,21,21,3.20
2012,07,04,21,22,3.20
2012,07,04,21,23,3.20
2012,07,04,21,24,1.60
2012,07,04,21,25,3.20
2012,07,04,21,26,3.20
2012,07,04,21,27,3.20
2012,07,04,21,28,1.60
2012,07,04,21,30,1.60
2012,07,04,22,12,1.60
2012,07,04,22,16,1.60
2012,07,04,22,17,1.60
2012,07,04,22,18,4.80
2012,07,04,22,19,4.80
2012,07,04,22,20,4.80
2012,07,04,22,21,1.60
2012,07,04,22,22,1.60
2012,07,04,22,34,1.60
2012,07,04,22,45,3.20
2012,07,04,22,46,1.60
2012,07,04,22,50,1.60
2012,07,04,22,53,3.20
2012,07,04,22,54,3.20
2012,07,04,22,55,3.20
2012,07,04,22,59,3.20
2012,07,04,23,03,3.20
2012,07,04,23,04,4.80
2012,07,04,23,05,3.20
2012,07,04,23,07,1.60
2012,07,04,23,12,1.60
2012,07,04,23,21,1.60
2012,07,04,23,26,3.20
2012,07,04,23,27,3.20
2012,07,04,23,28,3.20
2012,07,04,23,29,3.20
2012,07,04,23,34,1.60
2012,07,04,23,48,1.60
2012,07,04,23,54,3.20
2012,07,04,23,55,3.20
2012,07,04,23,56,3.20
2012,07,04,23,57,1.60
2012,07,04,23,58,1.60
2012,07,04,23,59,1.60
